Regional Weather Roundup
Issued by NWS

Home | Current Version | Previous Version | Text Only | Print | Product List | Glossary Off
Versions: 1 2 3 4 5 6 7 8 9 10 11 12 13 14 15 16 17 18 19 20 21 22 23 24 25 26 27

000
ASUS45 KTFX 240610
RWRMT
MONTANA REGIONAL WEATHER ROUNDUP
NATIONAL WEATHER SERVICE GREAT FALLS MT
1100 PM MST MON JAN 23 2017

NOTE: "FAIR" INDICATES FEW OR NO CLOUDS BELOW 12000 FEET WITH NO
SIGNIFICANT WEATHER AND/OR OBSTRUCTIONS TO VISIBILITY.

MTZ001>007-043-240700-
WEST OF THE DIVIDE

CITY           SKY/WX    TMP DP  RH WIND       PRES   REMARKS
KALISPELL      CLEAR     17  14  88 NW3       29.81R
MISSOULA       CLOUDY    29  24  82 CALM      29.79S
BUTTE          CLOUDY    17  10  74 CALM      29.69R
MULLAN PASS    CLOUDY    19  16  88 CALM      29.69R
ANACONDA         N/A     18  10  73 CALM      29.74R
DEER LODGE       N/A     19  12  73 N10       29.77S WCI   8
EUREKA           N/A     16  12  86 N3        29.85R
HAMILTON         N/A     25  21  86 CALM      29.76R
RONAN            N/A     11   7  84 CALM      29.83S VSB 0
$$

MTZ008-052>055-240700-
SOUTHWEST MONTANA

CITY           SKY/WX    TMP DP  RH WIND       PRES   REMARKS
BOZEMAN        CLOUDY    21  19  92 N5        29.71S
DILLON         CLOUDY    19  14  81 NE10      29.64R WCI   7
W YELLOWSTONE  CLOUDY    21  14  73 N8        29.52S WCI  12
ENNIS          CLOUDY    18  16  93 N18G25    29.66S WCI   2
$$

MTZ009-010-012-014-046-048-049-054-240700-
EAST SLOPES AND CENTRAL MONTANA

CITY           SKY/WX    TMP DP  RH WIND       PRES   REMARKS
CUT BANK       CLOUDY     5   3  91 W7        29.81S WCI  -7
GREAT FALLS    FOG       17  15  92 N3        29.83R VSB 1/4
MALMSTROM AFB  CLOUDY    17  17  99 NW6       29.86R WCI   8
HELENA         CLOUDY    22  16  78 W8        29.79S WCI  12
BOWMANS CRNR   CLOUDY    16  15  96 N6        29.78R WCI   8
CHOTEAU          N/A     18  18 100 W5        29.83S
CONRAD           N/A     18  17  95 NW6       29.85F WCI  10
POWER          CLOUDY    17  15  94 N7        29.81S WCI   7
RAYNESFORD     CLOUDY    18  16  94 NW9       29.81R WCI   6
ULM            CLOUDY    18  17  98 MISG      29.84R
$$

MTZ011-013-016-021-045-047-050-051-240700-
NORTH CENTRAL MONTANA

CITY           SKY/WX    TMP DP  RH WIND       PRES   REMARKS
HAVRE          CLOUDY    21  18  88 SW7       29.85S WCI  12
LEWISTOWN      CLOUDY    18  16  92 NW7       29.78R FOG     WCI   9
CHINOOK          N/A     21  18  86 W6        29.86S WCI  14
DENTON         CLOUDY    17  16  95 E5        29.79R
FORT BENTON      N/A     19  16  86 MISG      29.88S
GEYSER         CLOUDY    17  15  93 W16       29.79R WCI   2
GRASS RANGE    CLOUDY    19  17  90 W13       29.75R WCI   7
JUDITH GAP     MOCLDY    18  16  93 N18       29.72S WCI   2
ROY            FLURRIES  17  17  97 MISG      29.78R
STANFORD       CLOUDY    17  16  95 NW6       29.77R WCI   9
WINIFRED       LGT SNOW  17  16  95 W10       29.80R FOG     WCI   5
$$

MTZ017>020-022>027-061-062-240700-
NORTHEAST MONTANA

CITY           SKY/WX    TMP DP  RH WIND       PRES   REMARKS
GLASGOW        CLOUDY    20  16  84 NW7       29.84S WCI  11
JORDAN           N/A     23  19  85 N3        29.83R
SIDNEY         CLOUDY    22  20  92 CALM      29.85
WOLF POINT     CLOUDY    23  17  78 W3        29.86S
PLENTYWOOD       N/A     19  16  86 W6        29.82S WCI  11
POPLAR           N/A     21  16  79 W7        29.85S WCI  13
$$

MTZ028>42-056>058-240700-
SOUTHCENTRAL AND SOUTHEAST MONTANA

CITY           SKY/WX    TMP DP  RH WIND       PRES   REMARKS
BAKER          CLOUDY    21  19  92 SE5       29.79R FOG
BILLINGS       FLURRIES  24  21  88 NE3       29.77R
LIVINGSTON     LGT SNOW  22  18  85 E10       29.70S FOG     WCI  11
MILES CITY     CLOUDY    23  20  88 CALM      29.81R
BIG TIMBER     CLOUDY    21  19  93 NE3       29.76R FOG
FORSYTH          N/A     23  23 100 CALM      29.81R
HARLOWTON      FLURRIES  20  17  88 NE12      29.74S WCI   8
LAUREL           N/A     23  18  81 CALM      29.77S
$$

REGIONAL REPORTS...DAKOTAS

CITY           SKY/WX    TMP DP  RH WIND       PRES   REMARKS
WILLISTON      CLOUDY    22  19  89 W8        29.84S WCI  12
MINOT          CLOUDY    24  18  77 W12       29.81R WCI  13
DICKINSON      CLOUDY    23  21  92 W6        29.77S FOG     WCI  16
BEACH          CLOUDY    21  21 100 N7        29.83R WCI  13
CROSBY         CLOUDY    19  19 100 W12       29.84R WCI   7
TIOGA          CLOUDY    19  19 100 W10       29.82R WCI   8
WATFORD CITY   CLOUDY    19  18  93 SW6       29.83S WCI  11
BISMARCK       CLOUDY    29  25  85 W3        29.84R
GRAND FORKS    CLOUDY    26  19  74 W17G26    29.84R WCI  13
FARGO          CLOUDY    33  25  72 W7        29.86R WCI  27
BUFFALO SD       N/A     24  20  84 NE8       29.69S WCI  15
RAPID CITY     CLOUDY    23  21  92 N15       29.71S FOG     WCI  10
$$

REGIONAL REPORTS...WYOMING/IDAHO/WASHINGTON

CITY           SKY/WX    TMP DP  RH WIND       PRES   REMARKS
GILLETTE       FOG       15  15 100 N10       29.72R VSB 1/2 WCI   2
SHERIDAN       CLOUDY    19  17  92 NW5       29.75R
BUFFALO WY     FOG       19  15  84 N15G23    29.68R VSB 3/4 WCI   5
CODY           LGT SNOW  20  16  84 NW16G24   29.66R FOG     WCI   6
YELLOWSTONE LA   N/A     18  12  77 CALM      29.50R
IDAHO FALLS    SNOW      26  25  96 NW20G28   29.52R VSB 1/2 WCI  12
SALMON         CLOUDY    10   9  92 CALM      29.68S
BOISE          CLOUDY    28  24  85 W12       29.69R WCI  18
SPOKANE        CLOUDY    31  29  92 W7        29.85R WCI  24
$$

REGIONAL REPORTS...ALBERTA

CITY           SKY/WX    TMP DP  RH WIND       PRES   REMARKS
EDMONTON       CLOUDY    16   7  67 SW2       29.89S
CALGARY        CLOUDY    23  21  93 SW5       29.80S FOG
LETHBRIDGE     CLOUDY    19 N/A N/A SW8       29.83S WCI   9
MEDICINE HAT   CLOUDY    18  14  86 NW7       29.88R WCI   8
WATERTON GATE    N/A     16  14  93 S12         N/A  WCI   3
CARDSTON         N/A     16  12  86 SW8         N/A  WCI   5
MILK RIVER       N/A      9   7  92 W1          N/A
$$

REGIONAL REPORTS...SASKATCHEWAN

CITY           SKY/WX    TMP DP  RH WIND       PRES   REMARKS
SWIFT CURRENT  FLURRIES  10   9  92 NW9       29.80S WCI  -2
REGINA         CLOUDY    16  12  86 NW14      29.82R WCI   1
SASKATOON      FLURRIES  10   7  85 NW7       29.88R WCI   0
CYPRESS HILLS    N/A     12   9  85 NW1         N/A
$$




USA.gov is the U.S. government's official web portal to all federal, state and local government web resources and services.